Home > Time Zones > World Clock > Weather > Qatar > Doha > Past weeks

Flag for Qatar Weather past 2 weeks in Doha, Qatar

Now
97 °F

Clear.


Feels Like: 122 °F
Forecast: 88 / 108 °F
Wind: 6 mph from East

Location: Doha International Airport

Current Time: Aug 21, 2014 at 7:40:57 PM

Latest Report: Aug 21, 2014 at 7:00 PM


Visibility: 10 mi

Pressure: 29.56 "Hg

Humidity: 63%

Dew point: 82 °F

Location of DohaLocation

Historic Weather in Doha — Graph

°F

Doha temperature yesterday

Maximum temperature yesterday: 102 °F (at 11:00 AM)
Minimum temperature yesterday: 93 °F (at 1:30 AM)
Average temperature yesterday: 96 °F

Past Weeks' High & Low Weather Summary

 TemperatureHumidityPressure
High109 °F (Aug 8, 1:00 PM)89% (Aug 10, 11:00 PM)29.77 "Hg (Aug 10, 11:00 PM)
Low86 °F (Aug 13, 5:00 AM)17% (Aug 8, 2:00 PM)29.39 "Hg (Aug 8, 4:00 PM)
Average96 °F57%29.53 "Hg
* Reported Aug 6 6:00 PM — Aug 21 6:00 PM, Doha, Weather by CustomWeather, © 2014

Note: Actual official high and low records may vary slightly from our data, if they occured in-between our weather recording intervals... More about our weather records

Advertising

Doha weather history for previous 24 hours

 ConditionsComfort  
Time TempWeatherWind HumidityBarometerVisibility
6:00 PM
Aug 21
97 °FSunny.6 mph60%29.53 "Hg10 mi
5:00 PM99 °FSunny.8 mph57%29.53 "Hg10 mi
4:00 PM100 °FSunny.10 mph50%29.56 "Hg10 mi
3:00 PM100 °FClear.12 mph57%29.56 "Hg5 mi
2:00 PM104 °FClear.12 mph45%29.56 "Hg5 mi
1:30 PM102 °FClear.12 mph51%29.59 "Hg5 mi
1:00 PM104 °FClear.12 mph40%29.59 "Hg4 mi
12:00 PM104 °FClear.13 mph43%29.59 "Hg5 mi
11:00 AM109 °FClear.7 mph22%29.62 "Hg5 mi
10:00 AM108 °FClear.7 mph25%29.65 "Hg5 mi
9:30 AM106 °FClear.9 mph28%29.65 "Hg4 mi
9:00 AM104 °FClear.7 mph31%29.65 "Hg4 mi
8:30 AM102 °FClear.8 mph33%29.65 "Hg4 mi
8:00 AM100 °FClear.8 mph33%29.65 "Hg4 mi
7:30 AM99 °FClear.7 mph39%29.65 "Hg4 mi
7:00 AM97 °FClear.5 mph42%29.65 "Hg5 mi
6:30 AM95 °FClear.3 mph41%29.65 "Hg5 mi
5:00 AM93 °FClear.2 mph56%29.62 "Hg10 mi
4:30 AM93 °FClear.2 mph59%29.59 "Hg10 mi
4:00 AM93 °FPassing clouds.3 mph63%29.59 "HgN/A
3:00 AM93 °FClear.3 mph67%29.59 "Hg6 mi
2:00 AM93 °FClear.2 mph71%29.59 "Hg10 mi
1:00 AM93 °FPassing clouds.3 mph67%29.62 "HgN/A
12:00 AM93 °FClear.2 mph71%29.62 "Hg10 mi
11:00 PM
Aug 20
93 °FClear.3 mph71%29.65 "Hg10 mi
10:00 PM93 °FClear.2 mph71%29.65 "Hg10 mi
9:00 PM95 °FClear.5 mph71%29.68 "Hg10 mi
8:30 PM95 °FClear.6 mph71%29.65 "Hg10 mi
8:00 PM95 °FClear.7 mph71%29.65 "Hg10 mi
7:30 PM95 °FClear.7 mph71%29.65 "Hg10 mi
7:00 PM95 °FClear.7 mph67%29.65 "Hg10 mi
Weather by CustomWeather, © 2014

See weather overviewHow to use our weather pages